Weather History for KJHW - August, 2014

Change the Weather History Date:

Monday, August 18, 2014

  Actual Average (KBFD) Record (KBFD)
Temperature  
Mean Temperature 58 °F 64 °F  
Max Temperature 71 °F 76 °F 87 °F (1971)
Min Temperature 44 °F 52 °F 35 °F (1981)
Degree Days  
Heating Degree Days 8 1  
Month to date heating degree days 10  
Since 1 June heating degree days 219  
Since 1 July heating degree days 74  
Cooling Degree Days 0 2  
Month to date cooling degree days 36  
Year to date cooling degree days 160  
Since 1 June cooling degree days 150  
Growing Degree Days 8 (Base 50)    
Moisture  
Dew Point 54 °F    
Average Humidity 82    
Maximum Humidity 100    
Minimum Humidity 57    
Precipitation  
Precipitation 0.00 in 0.13 in 1.11 in (1973)
Month to date precipitation 2.40  
Year to date precipitation 28.24  
Sea Level Pressure  
Sea Level Pressure 29.95 in    
Wind  
Wind Speed 2 mph (NNE)    
Max Wind Speed 10 mph    
Max Gust Speed -    
Visibility 7 miles    
Events      
T = Trace of Precipitation, MM = Missing Value Source: NWS Daily Summary

Daily Weather History Graph

Daily Weather History Graph

Search for Another Location

Airport or City:

Trip Planner

Search our weather history database for the weather conditions in past years. The results will help you decide how hot, cold, wet, or windy it might be!

Date:

Astronomy

Aug. 18, 2014 Rise Set
Actual Time 6:27 AM EDT 8:13 PM EDT
Civil Twilight 5:57 AM EDT 8:43 PM EDT
Nautical Twilight 5:21 AM EDT 9:19 PM EDT
Astronomical Twilight 4:42 AM EDT 9:58 PM EDT
Moon 12:32 AM EDT (8/18) 3:16 PM EDT (8/18)
Length of Visible Light 14h 45m
Length of Day
13h 45m
Last Quarter, 38% of the Moon is Illuminated
Aug 18
Last Quarter
Aug 25
New
Sep 2
First Quarter
Sep 8
Full
Sep 15
Last Quarter

Hourly Weather History & Observations

Time (EDT) Temp. Dew Point Humidity Pressure Visibility Wind Dir Wind Speed Gust Speed Precip Events Conditions
12:15 AM 48.2 °F 48.2 °F 100% 30.01 in 10.0 mi North - - N/A   Clear
12:35 AM 53.6 °F 51.8 °F 94% 30.01 in 10.0 mi Calm Calm - N/A   Clear
12:55 AM 55.4 °F 51.8 °F 88% 30.01 in 10.0 mi Calm Calm - N/A   Clear
1:15 AM 55.4 °F 51.8 °F 88% 30.01 in 10.0 mi Calm Calm - N/A   Clear
1:35 AM 55.4 °F 51.8 °F 88% 30.01 in 10.0 mi Calm Calm - N/A   Mostly Cloudy
1:55 AM 55.4 °F 53.6 °F 94% 30.00 in 1.0 mi Calm Calm - N/A   Overcast
2:15 AM 55.4 °F 53.6 °F 94% 30.00 in 0.2 mi Calm Calm - N/A   Overcast
2:35 AM 44.6 °F - N/A% 29.99 in 0.2 mi Calm Calm - N/A   Overcast
2:55 AM 53.6 °F 51.8 °F 94% 29.98 in 1.2 mi Calm Calm - N/A   Mostly Cloudy
3:15 AM 53.6 °F 53.6 °F 100% 29.97 in 9.0 mi Calm Calm - N/A   Clear
3:35 AM 53.6 °F 51.8 °F 94% 29.97 in 10.0 mi Calm Calm - N/A   Clear
3:55 AM 53.6 °F 51.8 °F 94% 29.97 in 10.0 mi Calm Calm - N/A   Clear
4:15 AM 51.8 °F 50.0 °F 94% 29.98 in 0.2 mi Calm Calm - N/A   Overcast
4:35 AM 51.8 °F 48.2 °F 88% 29.98 in 0.2 mi South 3.5 mph - N/A   Overcast
4:55 AM 53.6 °F 51.8 °F 94% 29.98 in 0.8 mi South 3.5 mph - N/A   Overcast
5:15 AM 51.8 °F 48.2 °F 88% 29.98 in 0.2 mi SSW 3.5 mph - N/A   Overcast
5:35 AM 51.8 °F 50.0 °F 94% 29.99 in 1.2 mi Calm Calm - N/A   Mostly Cloudy
5:55 AM 51.8 °F 51.8 °F 100% 29.99 in 2.0 mi Calm Calm - N/A   Mostly Cloudy
6:15 AM 51.8 °F 51.8 °F 100% 29.98 in 4.0 mi Calm Calm - N/A   Mostly Cloudy
6:35 AM 50.0 °F 50.0 °F 100% 29.99 in 10.0 mi Calm Calm - N/A   Overcast
6:55 AM 50.0 °F 50.0 °F 100% 29.99 in 0.2 mi Calm Calm - N/A   Overcast
7:15 AM 51.8 °F 50.0 °F 94% 29.99 in 0.2 mi Calm Calm - N/A   Overcast
7:35 AM 53.6 °F 53.6 °F 100% 29.99 in 0.2 mi ENE 4.6 mph - N/A   Overcast
7:55 AM 53.6 °F 51.8 °F 94% 29.99 in 0.2 mi Calm Calm - N/A   Overcast
8:15 AM 53.6 °F 51.8 °F 94% 29.99 in 0.2 mi ENE 5.8 mph - N/A   Overcast
8:35 AM 53.6 °F 51.8 °F 94% 29.99 in 0.2 mi East 3.5 mph - N/A   Overcast
8:55 AM 53.6 °F 53.6 °F 100% 29.99 in 0.2 mi East 3.5 mph - N/A   Overcast
9:15 AM 55.4 °F 55.4 °F 100% 29.99 in 0.2 mi ENE 4.6 mph - N/A   Overcast
9:35 AM 57.2 °F 55.4 °F 94% 29.98 in 0.2 mi East 3.5 mph - N/A   Overcast
9:55 AM 57.2 °F 55.4 °F 94% 29.98 in 0.2 mi Calm Calm - N/A   Overcast
10:15 AM 55.4 °F 55.4 °F 100% 29.98 in 10.0 mi East 3.5 mph - N/A   Scattered Clouds
10:35 AM 60.8 °F 60.8 °F 100% 29.99 in 10.0 mi Calm Calm - N/A   Clear
10:55 AM 62.6 °F 59.0 °F 88% 29.98 in 10.0 mi Calm Calm - N/A   Partly Cloudy
11:15 AM 62.6 °F 57.2 °F 82% 29.98 in 10.0 mi Calm Calm - N/A   Scattered Clouds
11:35 AM 64.4 °F 57.2 °F 77% 29.97 in 10.0 mi ESE 3.5 mph - N/A   Partly Cloudy
11:55 AM 66.2 °F 57.2 °F 73% 29.97 in 10.0 mi ESE 4.6 mph - N/A   Scattered Clouds
12:15 PM 66.2 °F 57.2 °F 73% 29.97 in 10.0 mi ESE 4.6 mph - N/A   Mostly Cloudy
12:35 PM 68.0 °F 57.2 °F 68% 29.96 in 10.0 mi South 3.5 mph - N/A   Partly Cloudy
12:55 PM 64.4 °F 57.2 °F 77% 29.96 in 10.0 mi Calm Calm - N/A   Mostly Cloudy
1:15 PM 66.2 °F 57.2 °F 73% 29.95 in 10.0 mi Calm Calm - N/A   Overcast
1:35 PM 66.2 °F 55.4 °F 68% 29.95 in 10.0 mi Calm Calm - N/A   Mostly Cloudy
1:55 PM 69.8 °F 57.2 °F 64% 29.94 in 10.0 mi Calm Calm - N/A   Clear
2:15 PM 62.6 °F 57.2 °F 82% 29.94 in 10.0 mi Calm Calm - N/A   Mostly Cloudy
2:35 PM 64.4 °F 57.2 °F 77% 29.93 in 10.0 mi Calm Calm - N/A   Scattered Clouds
2:55 PM 71.6 °F 57.2 °F 60% 29.93 in 10.0 mi Calm Calm - N/A   Mostly Cloudy
3:15 PM 69.8 °F 55.4 °F 60% 29.92 in 10.0 mi NNE 3.5 mph - N/A   Mostly Cloudy
3:35 PM 71.6 °F 57.2 °F 60% 29.91 in 10.0 mi NNW 6.9 mph - N/A   Partly Cloudy
3:55 PM 71.6 °F 55.4 °F 57% 29.91 in 10.0 mi NNW 8.1 mph - N/A   Clear
4:15 PM 71.6 °F 57.2 °F 60% 29.90 in 10.0 mi North 8.1 mph - N/A   Mostly Cloudy
4:35 PM 71.6 °F 57.2 °F 60% 29.90 in 10.0 mi NNE 5.8 mph - N/A   Scattered Clouds
4:55 PM 71.6 °F 57.2 °F 60% 29.90 in 10.0 mi North 8.1 mph - N/A   Clear
5:15 PM 71.6 °F 59.0 °F 64% 29.90 in 10.0 mi North 5.8 mph - N/A   Scattered Clouds
5:35 PM 71.6 °F 59.0 °F 64% 29.89 in 10.0 mi NNW 5.8 mph - N/A   Partly Cloudy
5:55 PM 71.6 °F 59.0 °F 64% 29.89 in 10.0 mi NNE 5.8 mph - N/A   Scattered Clouds
6:15 PM 71.6 °F 57.2 °F 60% 29.90 in 10.0 mi NE 5.8 mph - N/A   Partly Cloudy
6:35 PM 71.6 °F 57.2 °F 60% 29.89 in 10.0 mi NNE 5.8 mph - N/A   Clear
6:55 PM 69.8 °F 59.0 °F 68% 29.89 in 10.0 mi North 3.5 mph - N/A   Clear
7:15 PM 69.8 °F 57.2 °F 64% 29.90 in 10.0 mi North 5.8 mph - N/A   Clear
7:35 PM 66.2 °F 55.4 °F 68% 29.90 in 10.0 mi NNW 9.2 mph - N/A   Clear
7:55 PM 66.2 °F 55.4 °F 68% 29.90 in 10.0 mi NNW 9.2 mph - N/A   Clear
8:15 PM 64.4 °F 55.4 °F 73% 29.90 in 10.0 mi NNW 10.4 mph - N/A   Clear
8:35 PM 53.6 °F 53.6 °F 100% 29.90 in 10.0 mi NNW 9.2 mph - N/A   Clear
8:55 PM 62.6 °F 55.4 °F 77% 29.90 in 10.0 mi NNW 8.1 mph - N/A   Clear
9:15 PM 60.8 °F 53.6 °F 77% 29.90 in 10.0 mi North 6.9 mph - N/A   Clear
9:35 PM 62.6 °F 53.6 °F 72% 29.90 in 10.0 mi North 6.9 mph - N/A   Clear
9:55 PM 60.8 °F 53.6 °F 77% 29.90 in 10.0 mi North 6.9 mph - N/A   Clear
10:15 PM 60.8 °F 53.6 °F 77% 29.90 in 10.0 mi North 6.9 mph - N/A   Clear
10:35 PM 60.8 °F 53.6 °F 77% 29.91 in 10.0 mi North 5.8 mph - N/A   Clear
10:55 PM 60.8 °F 53.6 °F 77% 29.90 in 10.0 mi North 4.6 mph - N/A   Clear
11:15 PM 59.0 °F 53.6 °F 82% 29.91 in 10.0 mi Calm Calm - N/A   Clear
11:35 PM 57.2 °F 53.6 °F 88% 29.90 in 10.0 mi Calm Calm - N/A   Clear